Le nostre stazioni meteo in Italia

Pubblicità
Il mio iltempo24.it
Capo Carbonara, Italia (16564): Temperatura & dewpoint: 03.04.2020 19:00:00 - 09.04.2020 19:00:00 (CEST)Capo Carbonara, Italia (16564): velocità del vento: 03.04.2020 19:00:00 - 09.04.2020 19:00:00 (CEST)Capo Carbonara, Italia (16564): direzione del vento: 03.04.2020 19:00:00 - 09.04.2020 19:00:00 (CEST)Capo Carbonara, Italia (16564): reduced air pressure: 03.04.2020 19:00:00 - 09.04.2020 19:00:00 (CEST)Capo Carbonara, Italia (16564): visibility: 03.04.2020 19:00:00 - 09.04.2020 19:00:00 (CEST)
Data & Tempo tt [°C] td [°C] ff [km/h] ff [kn] dd ppp [hPa] vv [km]
09.04.2020 19:00:00 18,0 12,0 5 3 N - 10
09.04.2020 18:00:00 18,0 16,0 8 4 ESE - 10
09.04.2020 17:00:00 19,4 15,0 11 6 SSO 1021,5 10
09.04.2020 16:00:00 20,0 15,0 11 6 SSO - 10
09.04.2020 15:00:00 19,0 15,0 11 6 O - 10
09.04.2020 14:00:00 20,2 14,1 9 5 SSE 1022,0 10
09.04.2020 13:00:00 20,0 13,0 9 5 NE - 10
09.04.2020 12:00:00 18,0 12,0 11 6 ESE - 10
09.04.2020 11:00:00 16,8 11,1 9 5 E 1022,6 10
09.04.2020 10:00:00 15,0 11,0 9 5 E - 10
09.04.2020 09:00:00 15,0 9,0 4 2 ESE - 10
09.04.2020 08:00:00 14,2 10,4 13 7 ENE 1022,1 10
09.04.2020 07:00:00 - - - - - - -
09.04.2020 06:00:00 - - - - - - -
09.04.2020 05:00:00 - - - - - - -
09.04.2020 04:00:00 - - - - - - -
09.04.2020 03:00:00 - - - - - - -
09.04.2020 02:00:00 - - - - - - -
09.04.2020 01:00:00 - - - - - - -
09.04.2020 00:00:00 - - - - - - -
08.04.2020 23:00:00 15,4 4,7 15 8 OSO 1023,7 10
08.04.2020 22:00:00 15,0 7,0 21 11 O - 10
08.04.2020 21:00:00 15,0 9,0 22 12 SSE - 10
08.04.2020 20:00:00 15,2 13,4 16 9 OSO 1023,4 10
08.04.2020 19:00:00 17,0 15,0 16 9 SO - 10
08.04.2020 18:00:00 18,0 13,0 13 7 SO - 10
08.04.2020 17:00:00 19,4 13,6 11 6 ONO 1023,5 10
08.04.2020 16:00:00 20,0 10,0 11 6 S - 10
08.04.2020 15:00:00 20,0 11,0 11 6 S - 10
08.04.2020 14:00:00 20,0 10,7 9 5 O 1024,7 10
08.04.2020 13:00:00 19,0 10,0 5 3 ESE - 10
08.04.2020 12:00:00 17,0 14,0 13 7 E - 10
08.04.2020 11:00:00 16,4 13,7 11 6 E 1025,5 10
08.04.2020 10:00:00 15,0 11,0 5 3 E - 10
08.04.2020 09:00:00 15,0 7,0 11 6 ENE - 10
08.04.2020 08:00:00 14,0 5,4 9 5 ENE 1025,3 20
08.04.2020 07:00:00 - - - - - - -
08.04.2020 06:00:00 - - - - - - -
08.04.2020 05:00:00 - - - - - - -
08.04.2020 04:00:00 - - - - - - -
08.04.2020 03:00:00 - - - - - - -
08.04.2020 02:00:00 - - - - - - -
08.04.2020 01:00:00 - - - - - - -
08.04.2020 00:00:00 - - - - - - -
07.04.2020 23:00:00 15,0 5,7 11 6 ENE 1026,1 10
07.04.2020 22:00:00 15,0 6,0 13 7 ENE - 10
07.04.2020 21:00:00 15,0 6,0 15 8 ENE - 10
07.04.2020 20:00:00 15,8 11,6 18 10 E 1025,6 10
07.04.2020 19:00:00 17,0 14,0 16 9 E - 10
07.04.2020 18:00:00 17,0 14,0 18 10 E - 10
07.04.2020 17:00:00 17,6 13,1 21 11 E 1025,3 10
07.04.2020 16:00:00 17,0 14,0 24 13 ENE - 10
07.04.2020 15:00:00 18,0 14,0 26 14 E - 10
07.04.2020 14:00:00 18,4 13,5 26 14 E 1026,1 10
07.04.2020 13:00:00 17,0 13,0 24 13 E - 10
07.04.2020 12:00:00 17,0 11,0 24 13 E - 10
07.04.2020 11:00:00 16,4 10,7 24 13 ENE 1026,2 20
07.04.2020 10:00:00 16,0 8,0 28 15 ENE - 10
07.04.2020 09:00:00 15,0 8,0 26 14 NE - 10
07.04.2020 08:00:00 14,0 8,8 28 15 NE 1014,9 20
07.04.2020 07:00:00 - - - - - - -
07.04.2020 06:00:00 - - - - - - -
07.04.2020 05:00:00 - - - - - - -
07.04.2020 04:00:00 - - - - - - -
07.04.2020 03:00:00 - - - - - - -
07.04.2020 02:00:00 - - - - - - -
07.04.2020 01:00:00 - - - - - - -
07.04.2020 00:00:00 - - - - - - -
06.04.2020 23:00:00 13,8 10,6 11 6 O 1025,2 20
06.04.2020 22:00:00 14,0 11,0 9 5 O - 10
06.04.2020 21:00:00 15,0 12,0 9 5 ENE - 10
06.04.2020 20:00:00 15,0 13,0 13 7 ENE 1023,4 20
06.04.2020 19:00:00 17,0 15,0 16 9 E - 10
06.04.2020 18:00:00 17,0 14,0 15 8 E - 10
06.04.2020 17:00:00 19,0 13,4 15 8 ESE 1023,2 20
06.04.2020 16:00:00 19,0 13,0 18 10 ESE - 10
06.04.2020 15:00:00 18,0 13,0 16 9 E - 10
06.04.2020 14:00:00 18,4 10,9 21 11 E 1023,0 20
06.04.2020 13:00:00 18,0 9,0 21 11 E - 10
06.04.2020 12:00:00 18,0 9,0 13 7 E - 10
06.04.2020 11:00:00 15,4 9,5 9 5 E 1022,6 20
06.04.2020 10:00:00 14,0 10,0 4 2 N - 10
06.04.2020 09:00:00 14,0 8,0 4 2 NE - 10
06.04.2020 08:00:00 13,0 8,7 13 7 O 1021,1 20
06.04.2020 07:00:00 - - - - - - -
06.04.2020 06:00:00 - - - - - - -
06.04.2020 05:00:00 - - - - - - -
06.04.2020 04:00:00 - - - - - - -
06.04.2020 03:00:00 - - - - - - -
06.04.2020 02:00:00 - - - - - - -
06.04.2020 01:00:00 - - - - - - -
06.04.2020 00:00:00 - - - - - - -
05.04.2020 23:00:00 13,4 8,0 11 6 NO 1020,6 20
05.04.2020 22:00:00 13,0 7,0 22 12 NNE - 10
05.04.2020 21:00:00 13,0 10,0 21 11 NNE - 10
05.04.2020 20:00:00 13,6 10,9 15 8 NNE 1019,5 20
05.04.2020 19:00:00 15,0 9,0 21 11 NE - 10
05.04.2020 18:00:00 16,0 9,0 26 14 NE - 10
05.04.2020 17:00:00 16,0 9,4 28 15 NE 1018,6 20
05.04.2020 16:00:00 16,0 8,0 29 16 NE - 10
05.04.2020 15:00:00 16,0 8,0 31 17 NE - 10
05.04.2020 14:00:00 17,0 10,2 42 23 ENE 1018,6 20
05.04.2020 13:00:00 16,0 8,0 41 22 NE - 10
05.04.2020 12:00:00 16,0 7,0 35 19 NE - 10
05.04.2020 11:00:00 15,8 4,0 31 17 NE 1019,3 20
05.04.2020 10:00:00 15,0 2,0 24 13 NNE - 10
05.04.2020 09:00:00 14,0 2,0 28 15 NE - 10
05.04.2020 08:00:00 13,4 4,6 8 4 NNO 1019,1 20
05.04.2020 07:00:00 - - - - - - -
05.04.2020 06:00:00 - - - - - - -
05.04.2020 05:00:00 - - - - - - -
05.04.2020 04:00:00 - - - - - - -
05.04.2020 03:00:00 - - - - - - -
05.04.2020 02:00:00 - - - - - - -
05.04.2020 01:00:00 - - - - - - -
05.04.2020 00:00:00 - - - - - - -
04.04.2020 23:00:00 13,0 8,9 13 7 ENE 1019,2 20
04.04.2020 22:00:00 13,0 9,0 18 10 ENE - 10
04.04.2020 21:00:00 14,0 9,0 18 10 NE - 10
04.04.2020 20:00:00 13,8 10,2 24 13 NE 1017,9 20
04.04.2020 19:00:00 15,0 10,0 22 12 NE - 10
04.04.2020 18:00:00 16,0 11,0 22 12 ENE - 10
04.04.2020 17:00:00 17,2 10,8 18 10 E 1017,2 20
04.04.2020 16:00:00 17,0 10,0 11 6 E - 10
04.04.2020 15:00:00 18,0 9,0 8 4 SSE - 10
04.04.2020 14:00:00 17,6 7,6 8 4 SSE 1017,1 20
04.04.2020 13:00:00 17,0 7,0 8 4 E - 10
04.04.2020 12:00:00 16,0 8,0 5 3 SSO - 10
04.04.2020 11:00:00 13,4 9,7 11 6 O 1017,0 20
04.04.2020 10:00:00 12,0 9,0 24 13 O - 10
04.04.2020 09:00:00 12,0 8,0 9 5 O - 10
04.04.2020 08:00:00 10,8 8,1 18 10 O 1015,3 20
04.04.2020 07:00:00 - - - - - - -
04.04.2020 06:00:00 - - - - - - -
04.04.2020 05:00:00 - - - - - - -
04.04.2020 04:00:00 - - - - - - -
04.04.2020 03:00:00 - - - - - - -
04.04.2020 02:00:00 - - - - - - -
04.04.2020 01:00:00 - - - - - - -
04.04.2020 00:00:00 - - - - - - -
03.04.2020 23:00:00 12,4 9,9 21 11 O 1013,2 10
03.04.2020 22:00:00 13,0 10,0 2 1 NNE - 10
03.04.2020 21:00:00 13,0 10,0 4 2 NNE - 10
03.04.2020 20:00:00 12,8 9,8 11 6 ENE 1012,0 10
03.04.2020 19:00:00 13,0 10,0 15 8 ENE - 10

tt = Temperatura
td = dewpoint
ff = velocità del vento
dd = direzione del vento
ppp = reduced air pressure
vv = visibility

Stazioni seguenti

WeatherPro
AMSI
MeteoEarth